Station MROS1 - 8661070 - Springmaid Pier, SC Image indicating link to RSS feed of recent meteorological observations for station MROS1


Conditions at MROS1 as of
(10:00 pm EDT on 05/18/2024)
0200 GMT on 05/19/2024:
     

Click on the graph icon in the table below to see a time series plot of the last five days of that observation.

5-day plot - Wind Direction Wind Direction (WDIR):SSW ( 210 deg true )
5-day plot - Wind Speed Wind Speed (WSPD): 7.0 kts
5-day plot - Wind Gust Wind Gust (GST): 8.0 kts
5-day plot - Atmospheric Pressure Atmospheric Pressure (PRES):29.85 in
5-day plot - Pressure Tendency Pressure Tendency (PTDY):+0.04 in ( Rising )
5-day plot - Air Temperature Air Temperature (ATMP): 73.8 °F
5-day plot - Water Temperature Water Temperature (WTMP): 72.5 °F
5-day plot - Wind Speed at 10 Meters Wind Speed at 10 meters (WSPD10M): 7.8 kts
5-day plot - Wind Speed at 20 Meters Wind Speed at 20 meters (WSPD20M): 7.8 kts
5-day plot -  Wind Speed, Wind Gust and Atmospheric Pressure Combined plot of Wind Speed, Gust, and Air Pressure
NOS Water Level Observation Network Water Level
Previous observations
TIME
(EDT)
5-day plot - Wind Direction
WDIR
 
5-day plot - Wind Speed
WSPD
kts
5-day plot - Wind Gust
GST
kts
5-day plot - Wave Height
WVHT
ft
5-day plot - Dominant Wave Period
DPD
sec
5-day plot - Average Wave Period
APD
sec
5-day plot - Mean Wave Direction
MWD
 
5-day plot - Atmospheric Pressure
PRES
in
5-day plot - Pressure Tendency
PTDY
in
5-day plot - Air Temperature
ATMP
°F
5-day plot - Water Temperature
WTMP
°F
5-day plot - Dew Point
DEWP
°F
5-day plot - Salinity
SAL
psu
5-day plot - Visibility
VIS
nmi
5-day plot - Tide (above MLLW)
TIDE
ft
2024-05-18 09:54 pmSSW 8.0 8.0----29.85- 73.8 72.5----
2024-05-18 09:48 pmSSW 7.0 8.0----29.85- 73.8 72.5----
2024-05-18 09:42 pmSSW 8.0 8.0----29.85- 73.6 72.5----
2024-05-18 09:36 pm SW 5.1 5.1----29.84- 73.6 72.5----
2024-05-18 09:30 pm SW 5.1 5.1----29.84- 73.4 72.5----
2024-05-18 09:24 pm SW 4.1 5.1----29.84- 73.8 72.5----
2024-05-18 09:18 pm SW 5.1 5.1----29.83- 73.9 72.5----
2024-05-18 09:12 pmSSW 5.1 7.0----29.83- 73.8 72.5----
2024-05-18 09:06 pm SW 6.0 6.0----29.83- 73.8 72.3----
2024-05-18 09:00 pmWSW 5.1 8.0----29.82+0.00 73.6 72.5----
2024-05-18 08:54 pm SW 8.0 8.9----29.82- 74.1 72.5----
2024-05-18 08:48 pmSSW 8.0 8.0----29.82- 74.1 72.3----
2024-05-18 08:42 pmSSW 5.1 6.0----29.82- 74.3 72.1----
2024-05-18 08:36 pm SW 6.0 8.0----29.82- 75.0 72.1----
2024-05-18 08:30 pm SW 6.0 7.0----29.82- 75.2 72.1----
2024-05-18 08:24 pm SW 5.1 6.0----29.82- 75.2 72.1----
2024-05-18 08:18 pm SW 5.1 7.0----29.83- 75.4 72.1----
2024-05-18 08:12 pmWSW 6.0 9.9----29.83- 75.7 72.1----
2024-05-18 08:06 pmWSW 8.9 9.9----29.83- 75.9 72.1----
2024-05-18 08:00 pm SW 8.9 11.1----29.83-0.03 75.7 72.1----
2024-05-18 07:54 pm SW 7.0 8.9----29.83- 75.9 72.1----
2024-05-18 07:48 pm SW 5.1 6.0----29.83- 76.1 72.1----
2024-05-18 07:42 pmWSW 6.0 8.9----29.83- 76.3 72.1----
2024-05-18 07:36 pm W 6.0 9.9----29.83- 76.3 72.1----
2024-05-18 07:30 pm W 5.1 6.0----29.82- 76.5 72.3----
2024-05-18 07:24 pm W 5.1 9.9----29.81- 76.3 72.3----
2024-05-18 07:00 pmWSW 7.0 8.9----29.82-0.08- 72.3----
2024-05-18 06:54 pmWSW 8.9 12.0----29.83-- 72.5----
2024-05-18 06:48 pm W 6.0 12.0----29.83-- 72.3----
2024-05-18 06:42 pmWSW 9.9 12.0----29.83-- 72.1----
2024-05-18 06:36 pm W 8.9 12.0----29.83-- 72.3----
2024-05-18 06:30 pm W 6.0 8.0----29.81- 77.4 72.1----
2024-05-18 06:24 pm W 8.0 12.0----29.81- 77.5 72.1----
2024-05-18 06:18 pmWSW 8.0 11.1----29.82- 77.5 72.1----
2024-05-18 06:12 pm W 8.9 19.0----29.82- 77.7 72.1----
2024-05-18 06:06 pm W 11.1 15.0----29.82- 77.9 72.1----
2024-05-18 06:00 pm W 8.9 12.0----29.83-0.07 78.1 72.3----
2024-05-18 05:54 pm W 6.0 8.9----29.83- 78.3 72.1----
2024-05-18 05:48 pm W 8.9 17.1----29.84- 78.3 72.3----
2024-05-18 05:42 pm W 9.9 18.1----29.84- 78.4 72.3----
2024-05-18 05:36 pm W 15.0 19.0----29.84- 78.6 72.3----
2024-05-18 05:30 pmWSW 12.0 15.9----29.84-- 72.3----
2024-05-18 05:24 pm W 11.1 15.9----29.85-- 72.3----
2024-05-18 05:18 pmWSW 9.9 14.0----29.85- 78.6 72.3----
2024-05-18 05:12 pm W 11.1 17.1----29.85- 78.8 72.5----
2024-05-18 05:06 pmWSW 12.0 15.0----29.86- 78.4 72.7----
2024-05-18 05:00 pmWSW 11.1 13.0----29.87-0.02 78.3 72.9----
2024-05-18 04:54 pmWSW 11.1 14.0----29.87- 78.3 72.9----
2024-05-18 04:48 pmWSW 11.1 13.0----29.87- 78.4 73.0----
2024-05-18 04:42 pmWSW 8.9 12.0----29.87- 78.4 73.0----
2024-05-18 04:36 pm W 7.0 12.0----29.88- 78.8 73.0----
2024-05-18 04:30 pm SW 11.1 12.0----29.88- 78.1 73.0----
2024-05-18 04:24 pm SW 13.0 17.1----29.89- 78.1 73.0----
2024-05-18 04:18 pmSSW 15.0 15.9----29.89- 77.5 73.0----
2024-05-18 04:12 pmSSW 14.0 19.0----29.89- 76.1 72.9----
2024-05-18 04:06 pm SW 12.0 17.1----29.89- 76.3 72.9----
2024-05-18 04:00 pmSSW 11.1 15.0----29.90-0.04 76.5 72.9----
2024-05-18 03:54 pmSSW 13.0 15.0----29.91- 76.5 72.9----
2024-05-18 03:48 pm SW 13.0 15.0----29.91- 76.1 73.0----
2024-05-18 03:42 pmSSW 14.0 19.0----29.91- 75.7 72.9----
2024-05-18 03:36 pmSSW 14.0 19.0----29.91- 75.4 72.7----
2024-05-18 03:30 pmSSW 15.9 20.0----29.91-- 72.5----
2024-05-18 03:24 pm SW 14.0 19.0----29.92-- 72.5----
2024-05-18 03:18 pmWSW 14.0 15.9----29.92- 79.5 72.5----
2024-05-18 03:12 pmWSW 11.1 13.0----29.91- 79.5 72.3----
2024-05-18 03:06 pm W 8.0 11.1----29.91- 79.9 72.5----
2024-05-18 03:00 pmWSW 9.9 11.1----29.90-0.03- 72.5----
2024-05-18 02:54 pm W 7.0 9.9----29.91-- 72.5----
2024-05-18 02:48 pm W 8.0 12.0----29.89- 79.9 72.7----
2024-05-18 02:42 pm W 8.9 14.0----29.89- 80.1 73.0----
2024-05-18 02:36 pm W 8.0 11.1----29.88- 79.9 73.0----
2024-05-18 02:30 pmWNW 5.1 8.9----29.87- 79.7 72.7----
2024-05-18 02:24 pm W 5.1 8.0----29.86- 79.5 73.0----
2024-05-18 02:18 pmWNW 5.1 12.0----29.87- 79.3 73.0----
2024-05-18 02:12 pmWNW 7.0 12.0----29.87- 79.2 72.9----
2024-05-18 02:06 pm W 8.9 12.0----29.88- 79.2 73.0----
2024-05-18 02:00 pm-------29.88-0.05 79.2 73.0----
2024-05-18 01:54 pm-------29.89- 78.6 73.0----
2024-05-18 01:48 pmWSW 8.9 14.0----29.89- 78.3 73.2----
2024-05-18 01:42 pm SW 8.9 14.0----29.89- 77.5 73.2----
2024-05-18 01:36 pmSSW 11.1 13.0----29.89- 77.2 73.2----
2024-05-18 01:30 pm SW 11.1 13.0----29.90- 77.2 73.2----
2024-05-18 01:24 pmSSW 11.1 13.0----29.91- 77.0 73.2----
2024-05-18 01:18 pm SW 13.0 15.0----29.91- 77.5 73.0----
2024-05-18 01:12 pmWSW 12.0 14.0----29.92- 77.5 73.0----
2024-05-18 01:06 pmWSW 13.0 17.1----29.93- 77.5 73.0----
2024-05-18 01:00 pm W 8.9 15.9----29.94+0.04 78.1 73.0----
2024-05-18 12:54 pmWSW 11.1 14.0----29.93- 78.1 73.0----
2024-05-18 12:48 pm SW 7.0 12.0----29.93- 77.5 73.0----
2024-05-18 12:42 pmWSW 6.0 6.0----29.94- 76.3 73.0----
2024-05-18 12:36 pm SW 5.1 6.0----29.93- 75.2 73.0----
2024-05-18 12:30 pmSSW 5.1 6.0----29.93- 75.2 73.0----
2024-05-18 12:24 pm SW 5.1 7.0----29.92- 75.2 73.0----
2024-05-18 12:18 pmSSW 7.0 9.9----29.93- 75.2 72.9----
2024-05-18 12:12 pmSSW 8.9 9.9----29.93- 75.2 73.0----
2024-05-18 12:06 pmSSW 8.9 9.9----29.93- 75.2 73.0----
2024-05-18 12:00 pmSSW 9.9 12.0----29.93+0.00 75.2 73.0----
2024-05-18 11:54 amSSW 11.1 12.0----29.93- 75.0 72.9----
2024-05-18 11:48 am SW 6.0 8.9----29.93- 75.0 73.0----
2024-05-18 11:42 am SW 6.0 7.0----29.93- 75.2 73.0----
2024-05-18 11:36 amWSW 6.0 7.0----29.93- 75.2 72.9----
2024-05-18 11:30 am SW 5.1 6.0----29.93- 75.0 72.9----
2024-05-18 11:24 am SW 6.0 7.0----29.93- 75.0 73.2----
2024-05-18 11:18 am SW 6.0 7.0----29.93-- 73.2----
2024-05-18 11:12 am SW 6.0 8.0----29.93-- 73.2----
2024-05-18 11:06 am SW 6.0 7.0----29.93-- 73.2----
2024-05-18 11:00 am SW 7.0 7.0----29.93+0.01 75.0 73.2----
2024-05-18 10:54 am SW 6.0 7.0----29.93- 75.0 73.2----
2024-05-18 10:48 am SW 6.0 8.0----29.93- 75.0 73.4----
2024-05-18 10:42 amSSW 8.0 8.9----29.92- 75.0 73.4----
2024-05-18 10:36 am SW 7.0 8.0----29.92- 75.0 73.2----
2024-05-18 10:30 amSSW 8.0 8.9----29.91- 75.0 73.2----
2024-05-18 10:24 amSSW 8.0 8.9----29.90- 75.0 73.2----
2024-05-18 10:18 am S 8.0 8.9----29.89- 74.8 73.2----
2024-05-18 10:12 amSSW 8.0 8.9----29.90- 74.8 73.0----
2024-05-18 10:06 amSSW 8.0 8.9----29.91- 74.8 73.0----
2024-05-18 10:00 am S 8.0 9.9----29.90-0.01- 73.0----
2024-05-18 09:54 am S 8.9 9.9----29.90-- 73.0----
2024-05-18 09:48 am S 8.9 9.9----29.91- 74.8 73.0----
2024-05-18 09:42 am S 8.9 9.9----29.91- 74.8 73.2----
2024-05-18 09:36 am S 8.0 9.9----29.91- 75.0 73.2----
2024-05-18 09:30 am S 8.9 9.9----29.91- 75.2 73.2----
2024-05-18 09:24 amSSW 8.9 9.9----29.91- 75.2 73.4----
2024-05-18 09:18 am SW 7.0 8.0----29.92-------
2024-05-18 09:12 amWSW 5.1 8.9----29.91-------
2024-05-18 09:06 amWSW 6.0 11.1----29.92-------
2024-05-18 09:00 am SW 7.0 8.9----29.92+0.03 75.9 73.4----
2024-05-18 08:54 amWSW 6.0 7.0----29.93- 75.9 73.2----
2024-05-18 08:48 amWSW 7.0 7.0----29.92- 75.7 73.4----
2024-05-18 08:42 am SW 5.1 7.0----29.92- 75.7 73.2----
2024-05-18 08:36 amWSW 7.0 8.0----29.92- 75.7 73.2----
2024-05-18 08:30 amWSW 6.0 8.0----29.92- 75.6 73.2----
2024-05-18 08:24 amWSW 6.0 8.9----29.92- 75.6 73.4----
2024-05-18 08:18 am SW 6.0 9.9----29.92- 75.6 73.4----
2024-05-18 08:12 amWSW 7.0 9.9----29.92- 75.6 73.0----
2024-05-18 08:06 am SW 6.0 8.0----29.91- 75.6 73.0----
2024-05-18 08:00 am-------29.92+0.04 75.6 73.0----
2024-05-18 07:54 am-------29.92- 75.6 72.9----
2024-05-18 07:48 amWSW 8.0 9.9----29.92- 75.6 72.9----
2024-05-18 07:42 amWSW 7.0 8.9----29.92- 75.7 72.9----
2024-05-18 07:36 am W 6.0 8.9----29.91- 75.7 72.9----
2024-05-18 07:30 amWSW 5.1 8.0----29.91- 75.7 72.9----
2024-05-18 07:24 amWSW 5.1 6.0----29.91- 75.6 73.0----
2024-05-18 07:18 amWSW 4.1 8.0----29.91- 75.4 72.9----
2024-05-18 07:12 amWSW 5.1 8.0----29.91- 75.2 72.9----
2024-05-18 07:06 am SW 7.0 9.9----29.91- 75.0 72.9----
2024-05-18 07:00 amWSW 8.0 9.9----29.91+0.06- 72.9----
2024-05-18 06:54 am SW 7.0 8.0----29.91-- 72.7----
2024-05-18 06:48 am SW 7.0 9.9----29.91- 74.7 72.7----
2024-05-18 06:42 am SW 8.0 8.0----29.91- 74.7 72.7----
2024-05-18 06:36 am SW 8.0 8.0----29.90- 74.7 72.7----
2024-05-18 06:30 am SW 8.0 8.9------ 74.8 72.5----
2024-05-18 06:24 am SW 7.0 8.9------ 74.7 72.5----
2024-05-18 06:18 am SW 7.0 8.0----29.90- 74.7 72.7----
2024-05-18 06:12 am SW 6.0 6.0----29.90- 74.5 72.7----
2024-05-18 06:06 am SW 5.1 5.1----29.89- 74.5 72.7----
2024-05-18 06:00 am-------29.89+0.02 74.3-----
2024-05-18 05:54 am-------29.88- 74.3-----
2024-05-18 05:48 am SW 5.1 5.1----29.88- 74.5 72.7----
2024-05-18 05:42 amSSW 4.1 5.1----29.88- 74.5 72.9----
2024-05-18 05:36 amSSW 5.1 6.0----29.88- 74.3 72.9----
2024-05-18 05:30 am SW 2.9 4.1----29.88- 74.3 72.7----
2024-05-18 05:24 am SW 2.9 2.9----29.88- 74.3 72.7----
2024-05-18 05:18 am SW 2.9 2.9----29.88- 74.3 72.7----
2024-05-18 05:12 am SW 2.9 4.1----29.88- 74.3 72.7----
2024-05-18 05:06 am SW 2.9 4.1----29.88- 74.5 72.7----
2024-05-18 05:00 am SW 4.1 5.1----29.88-0.01 74.5 72.7----
2024-05-18 04:54 amSSW 5.1 5.1----29.88- 74.5 72.7----
2024-05-18 04:48 amSSW 5.1 5.1----29.87-- 72.7----
2024-05-18 04:42 am SW 5.1 6.0----29.87-- 72.7----
2024-05-18 04:36 amSSW 6.0 7.0----29.87-- 72.7----
2024-05-18 04:30 amSSW 7.0 7.0----29.86- 74.5 72.7----
2024-05-18 04:24 am SW 7.0 8.0----29.87- 74.5 72.7----
2024-05-18 04:18 am SW 7.0 7.0----29.87- 74.3 72.9----
2024-05-18 04:12 am SW 6.0 8.9----29.86- 74.3 72.9----
2024-05-18 04:06 am SW 8.0 8.9----29.87- 74.5 72.9----
2024-05-18 04:00 am SW 7.0 7.0----29.86-0.04 74.5 72.9----
2024-05-18 03:54 am SW 7.0 8.0----29.86- 74.5 73.0----
2024-05-18 03:48 am SW 8.0 9.9----29.86- 74.5 73.2----
2024-05-18 03:42 amSSW 8.9 11.1----29.86- 74.5 73.4----
2024-05-18 03:36 amSSW 9.9 9.9----29.86- 74.5 73.4----
2024-05-18 03:30 amSSW 8.9 9.9----29.86- 74.5 73.2----
2024-05-18 03:24 am SW 8.9 9.9----29.87- 74.5 73.2----
2024-05-18 03:18 am SW 8.9 9.9----29.87- 74.5 73.0----
2024-05-18 03:12 am SW 8.0 8.9----29.87- 74.5 73.2----
2024-05-18 03:06 am SW 8.0 8.9----29.87- 74.5 73.2----
2024-05-18 03:00 am SW 8.0 8.9----29.87-0.04 74.5 73.0----
2024-05-18 02:54 am SW 8.0 8.9----29.87- 74.5 73.0----
2024-05-18 02:48 am SW 8.0 8.9----29.88- 74.7 73.2----
2024-05-18 02:42 am SW 8.9 11.1----29.88- 74.7 73.2----
2024-05-18 02:36 amSSW 8.9 9.9----29.89- 74.7 73.0----
2024-05-18 02:30 amSSW 8.9 9.9----29.89- 74.7 73.2----
2024-05-18 02:24 am SW 8.9 11.1----29.89- 74.7 73.2----
2024-05-18 02:18 amSSW 8.9 11.1----29.90- 74.7 73.4----
2024-05-18 02:12 amSSW 9.9 11.1----29.90- 74.8 73.6----
2024-05-18 02:06 amSSW 9.9 11.1----29.90- 74.8 73.9----
2024-05-18 02:00 amSSW 9.9 11.1----29.89-0.02 74.8 74.1----
2024-05-18 01:54 amSSW 9.9 12.0----29.89- 74.8 74.1----
2024-05-18 01:48 amSSW 8.9 9.9----29.89- 74.8 74.1----
2024-05-18 01:42 amSSW 8.9 9.9----29.89- 74.8 74.1----
2024-05-18 01:36 amSSW 8.0 8.9----29.90- 74.8 74.3----
2024-05-18 01:30 amSSW 7.0 8.0----29.89- 74.8 74.3----
2024-05-18 01:24 amSSW 7.0 8.9----29.89- 74.8 74.3----
2024-05-18 01:18 amSSW 8.0 8.9----29.89- 74.8 74.3----
2024-05-18 01:12 amSSW 8.0 8.9----29.89- 75.0 74.3----
2024-05-18 01:06 amSSW 8.0 9.9----29.89- 75.0 74.3----
2024-05-18 01:00 amSSW 8.9 9.9----29.90-0.01 75.2 74.3----
2024-05-18 12:54 amSSW 9.9 11.1----29.90- 75.2 74.5----
2024-05-18 12:48 amSSW 11.1 12.0----29.90- 75.4 74.5----
2024-05-18 12:42 amSSW 9.9 11.1----29.91- 75.4 74.5----
2024-05-18 12:36 am SW 8.9 11.1----29.91- 75.4 74.5----
2024-05-18 12:30 am SW 8.9 12.0----29.91- 75.6 74.5----
2024-05-18 12:24 amSSW 11.1 13.0----29.91- 75.7 74.5----
2024-05-18 12:18 amSSW 13.0 14.0----29.91- 75.7 74.7----
2024-05-18 12:12 amSSW 11.1 12.0----29.91- 75.6 74.7----
2024-05-18 12:06 amSSW 9.9 11.1----29.91- 75.6 74.7----
2024-05-18 12:00 amSSW 11.1 12.0----29.91+0.01 75.6 74.7----
2024-05-17 11:54 pm S 11.1 12.0----29.91- 75.6 74.7----
2024-05-17 11:48 pm S 11.1 12.0----29.91- 75.7 74.7----
2024-05-17 11:42 pm S 12.0 12.0----29.91- 75.7 74.7----
2024-05-17 11:36 pm S 11.1 12.0----29.91- 75.6 74.8----
2024-05-17 11:30 pm S 9.9 11.1----29.91- 75.6 74.8----
2024-05-17 11:24 pm S 8.9 12.0----29.91- 75.6 74.8----
2024-05-17 11:18 pm S 9.9 11.1----29.91- 75.6 74.8----
2024-05-17 11:12 pm S 11.1 12.0----29.91- 75.6 74.8----
2024-05-17 11:06 pm S 9.9 12.0----29.91- 75.6 74.8----
2024-05-17 11:00 pm S 9.9 12.0----29.92+0.03 75.6 74.8----
2024-05-17 10:54 pm S 9.9 12.0----29.92- 75.6 74.8----
2024-05-17 10:48 pm S 12.0 13.0----29.91- 75.7 74.8----
2024-05-17 10:42 pm S 11.1 13.0----29.91- 75.7 74.8----
2024-05-17 10:36 pm S 12.0 14.0----29.92- 75.7 74.8----
2024-05-17 10:30 pm S 12.0 12.0----29.92- 75.7 74.8----
2024-05-17 10:24 pm S 11.1 12.0----29.92- 75.7 74.8----
2024-05-17 10:18 pm S 11.1 12.0----29.91- 75.7 74.8----
2024-05-17 10:12 pm S 9.9 12.0----29.91- 75.6 74.8----
2024-05-17 10:06 pm S 9.9 12.0----29.91- 75.6 74.8----
2024-05-17 10:00 pm S 11.1 13.0----29.91+0.01 75.6 74.8----
2024-05-17 09:54 pm S 11.1 12.0----29.91- 75.4 74.8----